Regional Weather Roundup
Issued by NWS

Home | Current Version | Previous Version | Text Only | Print | Product List | Glossary Off
Versions: 1 2 3 4 5 6 7 8 9 10 11 12 13 14 15 16 17 18 19 20 21 22 23 24 25 26 27 28 29 30 31 32 33 34 35 36 37 38 39 40 41 42 43 44 45 46 47 48 49 50

210
ASUS43 KOAX 061302
RWRNE

WEATHER ROUNDUP FOR NEBRASKA
NATIONAL WEATHER SERVICE OMAHA NE
800 AM CDT FRI MAY 06 2016

NOTES: SATELLITE DATA IS BEING USED TO AUGMENT CLOUD COVER ABOVE
       12000 FEET.
       "FAIR" INDICATES FEW OR NO CLOUDS BELOW 12,000 FEET WITH NO
       SIGNIFICANT WEATHER AND/OR OBSTRUCTIONS TO VISIBILITY.

  * THESE STATIONS DO NOT REPORT WEATHER SUCH AS RAIN...SNOW OR FOG.

NEZ001>004-019>022-054>056-061400-
NEBRASKA PANHANDLE

CITY           SKY/WX    TMP DP  RH WIND       PRES   REMARKS
SCOTTSBLUFF    CLOUDY    58  46  64 E9        29.94R
ALLIANCE       CLOUDY    50  47  89 SE9       29.95R
CHADRON        MOSUNNY   55  48  77 CALM      29.91R
KIMBALL        CLOUDY    49  44  82 S7        29.98S
SIDNEY         CLOUDY    57  47  69 S8        29.97R
$$

NEZ057>060-069>072-079>082-061400-
SOUTHWEST NEBRASKA

CITY           SKY/WX    TMP DP  RH WIND       PRES   REMARKS
NORTH PLATTE   CLOUDY    59  46  62 CALM      29.99R
IMPERIAL       CLOUDY    57  46  66 S7        29.99R
MCCOOK         MOSUNNY   56  47  71 S5        30.00R
$$

NEZ005>010-023>029-035>040-094-061400-
NORTH CENTRAL NEBRASKA

CITY           SKY/WX    TMP DP  RH WIND       PRES   REMARKS
VALENTINE      SUNNY     62  48  60 SW7       29.93R
AINSWORTH      SUNNY     60  47  61 SW16      29.94R
BROKEN BOW     LGT RAIN  60  46  59 S8        29.99R
$$

NEZ041-046>049-061>064-073>077-083>087-061400-
SOUTH CENTRAL NEBRASKA

CITY           SKY/WX    TMP DP  RH WIND       PRES   REMARKS
AURORA         SUNNY     59  45  58 SW13      30.01R
KEARNEY *      SUNNY     57  45  62 S12       30.01S
YORK           SUNNY     55  45  67 S10       30.02S
$$

NEZ011>018-030>034-042>045-061400-
NORTHEAST NEBRASKA

CITY           SKY/WX    TMP DP  RH WIND       PRES   REMARKS
NORFOLK        SUNNY     61  44  53 SW14      29.97R
ALBION         SUNNY     58  46  64 S3        29.99S
BLAIR          SUNNY     59  47  65 SW7       30.01R
COLUMBUS *     SUNNY     61  43  51 SW8       30.01S
FREMONT        SUNNY     61  45  55 SW3       30.01S
$$

NEZ050>053-065>068-078-088>093-061400-
SOUTHEAST NEBRASKA

CITY           SKY/WX    TMP DP  RH WIND       PRES   REMARKS
BEATRICE       SUNNY     55  46  72 S3        30.04R
FALLS CITY     SUNNY     58  48  69 SE3       30.04R
$$

NEZ044-045-051>053-067-061400-
OMAHA AREA

CITY           SKY/WX    TMP DP  RH WIND       PRES   REMARKS
BLAIR          SUNNY     59  47  65 SW7       30.01R
FREMONT        SUNNY     61  45  55 SW3       30.01S
OFFUTT AFB     SUNNY     56  51  80 E3        30.01S
$$




USA.gov is the U.S. government's official web portal to all federal, state and local government web resources and services.